Tracking 22458 objects as of 2-Mar-2021
HD Live streaming from Space Station
objects crossing your sky now

COSMOS 1691 DEB

Track COSMOS 1691 DEB now!
10-day predictions


NORAD ID: 16272
Int'l Code: 1985-094R
Perigee: 1,339.2 km
Apogee: 1,405.6 km
Inclination: 82.6 °
Period: 113.0 minutes
Semi major axis: 7743 km
RCS: 0.0423 m2 (small)
Launch date: October 9, 1985
Source: Commonwealth of Independent States (former USSR) (CIS)
Launch site: PLESETSK MISSILE AND SPACE COMPLEX (PKMTR)

Note: This is SATELLITE DEBRIS
aabbcc
Your satellite tracking list
Your tracking list is empty




NASA's NSSDC Master Catalog

Two Line Element Set (TLE):
1 16272U 85094R   21060.48624100  .00000121  00000-0  52004-3 0  9996
2 16272  82.6185 311.9873 0042848 109.6533  63.4242 12.74103247641660
Source of the keplerian elements: AFSPC